Preston, MN

2:03 PM CDT on June 25, 2017 (GMT -0500)
Preston

Weather History for KFKA - December, 2012

Change the Weather History Date:

Monday, December 31, 2012

  Actual Average (KRST) Record (KRST)
Temperature  
Mean Temperature 10 °F -  
Max Temperature 19 °F 19 °F 49 °F (1965)
Min Temperature 0 °F 4 °F -28 °F (1946)
Degree Days  
Heating Degree Days 56    
Moisture  
Dew Point 5 °F    
Average Humidity 79    
Maximum Humidity 90    
Minimum Humidity 68    
Precipitation  
Precipitation 0.00 in - - ()
Sea Level Pressure  
Sea Level Pressure 30.09 in    
Wind  
Wind Speed 13 mph (NW)    
Max Wind Speed 22 mph    
Max Gust Speed 28 mph    
Visibility 9 miles    
Events Snow    
Averages and records for this station are not official NWS values.
T = Trace of Precipitation, MM = Missing Value Source: NWS Daily Summary

Daily Weather History Graph

Daily Weather History Graph

Search for Another Location

Airport or City:

Trip Planner

Search our weather history database for the weather conditions in past years. The results will help you decide how hot, cold, wet, or windy it might be!

Date:

Astronomy

Dec. 31, 2012 Rise Set
Actual Time 7:42 AM CST 4:41 PM CST
Civil Twilight 7:09 AM CST 5:14 PM CST
Nautical Twilight 6:33 AM CST 5:50 PM CST
Astronomical Twilight 5:58 AM CST 6:25 PM CST
Moon 8:20 PM CST (12/31) 9:17 AM CST (12/31)
Length of Visible Light 10h 04m
Length of Day
8h 59m
Waning Gibbous, 90% of the Moon is Illuminated
Dec 31
Waning Gibbous
Jan 4
Last Quarter
Jan 11
New
Jan 18
First Quarter
Jan 26
Full

Hourly Weather History & Observations

Time (CST) Temp. Windchill Dew Point Humidity Pressure Visibility Wind Dir Wind Speed Gust Speed Precip Events Conditions
12:10 AM 19.6 °F 6.2 °F 16.3 °F 87% 29.94 in 10.0 mi West 13.8 mph - N/A   Clear
12:30 AM 18.5 °F 5.5 °F 15.4 °F 88% 29.94 in 10.0 mi West 12.7 mph - N/A   Clear
12:50 AM 17.4 °F 4.7 °F 14.2 °F 87% 29.94 in 10.0 mi West 11.5 mph - N/A   Clear
1:10 AM 16.7 °F 3.2 °F 13.6 °F 88% 29.94 in 10.0 mi WNW 12.7 mph - N/A   Clear
1:29 AM 16.7 °F 2.0 °F 13.5 °F 87% 29.95 in 10.0 mi WNW 15.0 mph - N/A   Clear
1:50 AM 16.7 °F 1.5 °F 13.1 °F 86% 29.96 in 10.0 mi WNW 16.1 mph - N/A   Clear
2:10 AM 16.3 °F 0.1 °F 12.9 °F 86% 29.97 in 10.0 mi NW 18.4 mph - N/A   Clear
2:30 AM 16.2 °F 1.3 °F 12.7 °F 86% 29.97 in 10.0 mi NW 15.0 mph - N/A   Clear
2:50 AM 15.8 °F 0.9 °F 12.2 °F 86% 29.99 in 10.0 mi WNW 15.0 mph - N/A   Clear
3:10 AM 14.9 °F -0.8 °F 11.3 °F 86% 29.99 in 10.0 mi NW 16.1 mph - N/A   Clear
3:29 AM 14.9 °F -3.1 °F 11.3 °F 86% 30.01 in 10.0 mi NW 21.9 mph 26.5 mph N/A   Clear
3:50 AM 14.0 °F -3.4 °F 11.3 °F 89% 30.00 in 5.0 mi NW 19.6 mph 27.6 mph N/A   Mostly Cloudy
4:09 AM 14.2 °F -3.2 °F 11.8 °F 90% 30.00 in 5.0 mi NW 19.6 mph 27.6 mph N/A   Overcast
4:30 AM 13.8 °F -2.7 °F 11.1 °F 89% 30.02 in 10.0 mi NNW 17.3 mph 25.3 mph N/A   Overcast
4:50 AM 13.5 °F -3.7 °F 10.8 °F 89% 30.03 in 7.0 mi NW 18.4 mph 26.5 mph N/A   Overcast
5:10 AM 12.9 °F -3.9 °F 10.4 °F 90% 30.03 in 5.0 mi NW 17.3 mph 27.6 mph N/A   Overcast
5:30 AM 12.2 °F -5.3 °F 9.5 °F 89% 30.04 in 4.0 mi NW 18.4 mph 23.0 mph N/A Snow Light Snow
6:30 AM 12.0 °F -6.0 °F 9.3 °F 89% 30.06 in 5.0 mi NW 19.6 mph 25.3 mph N/A Snow Light Snow
6:49 AM 12.2 °F -3.1 °F 9.3 °F 88% 30.06 in 10.0 mi NW 13.8 mph - N/A   Overcast
7:30 AM 12.6 °F -1.4 °F 9.7 °F 88% 30.07 in 5.0 mi NNW 11.5 mph - N/A Snow Light Snow
8:10 AM 13.6 °F 0.7 °F 10.4 °F 87% 30.07 in 3.0 mi NNW 10.4 mph 18.4 mph N/A Snow Light Snow
8:30 AM 13.8 °F -1.1 °F 10.2 °F 86% 30.08 in 5.0 mi NNW 13.8 mph - N/A Snow Light Snow
8:50 AM 13.8 °F -2.2 °F 9.5 °F 83% 30.08 in 7.0 mi NNW 16.1 mph - N/A Snow Light Snow
9:10 AM 13.1 °F -1.4 °F 7.3 °F 78% 30.09 in 10.0 mi NNW 12.7 mph 20.7 mph N/A   Scattered Clouds
9:30 AM 12.2 °F -1.0 °F 6.6 °F 78% 30.10 in 10.0 mi NNW 10.4 mph 18.4 mph N/A   Clear
9:49 AM 11.7 °F -2.5 °F 6.1 °F 78% 30.11 in 10.0 mi NNW 11.5 mph - N/A   Clear
10:10 AM 11.8 °F -2.3 °F 6.3 °F 78% 30.11 in 10.0 mi NW 11.5 mph - N/A   Clear
10:30 AM 12.2 °F -1.0 °F 6.3 °F 77% 30.12 in 10.0 mi NNW 10.4 mph - N/A   Clear
10:50 AM 12.0 °F -1.3 °F 6.1 °F 77% 30.11 in 10.0 mi NNW 10.4 mph - N/A   Clear
11:09 AM 12.9 °F -1.6 °F 6.4 °F 75% 30.11 in 10.0 mi NW 12.7 mph - N/A   Clear
11:30 AM 12.9 °F -2.2 °F 6.4 °F 75% 30.10 in 10.0 mi NW 13.8 mph - N/A   Clear
11:49 AM 13.1 °F -1.4 °F 6.4 °F 75% 30.09 in 10.0 mi NW 12.7 mph - N/A   Clear
12:10 PM 14.0 °F -0.2 °F 6.6 °F 72% 30.09 in 10.0 mi NW 12.7 mph - N/A   Clear
12:29 PM 14.0 °F -0.8 °F 6.3 °F 71% 30.09 in 10.0 mi NW 13.8 mph - N/A   Clear
12:50 PM 14.9 °F 0.9 °F 6.3 °F 69% 30.09 in 10.0 mi NW 12.7 mph - N/A   Clear
1:09 PM 14.9 °F 0.3 °F 6.3 °F 69% 30.09 in 10.0 mi NW 13.8 mph - N/A   Clear
1:30 PM 14.7 °F 0.1 °F 5.9 °F 68% 30.09 in 10.0 mi NW 13.8 mph - N/A   Clear
1:50 PM 14.5 °F 1.1 °F 5.5 °F 68% 30.09 in 10.0 mi NW 11.5 mph - N/A   Clear
2:10 PM 14.4 °F 0.9 °F 5.5 °F 68% 30.09 in 10.0 mi NW 11.5 mph - N/A   Clear
2:30 PM 13.5 °F 0.5 °F 5.0 °F 69% 30.10 in 10.0 mi NW 10.4 mph - N/A   Clear
2:50 PM 13.5 °F 1.3 °F 5.0 °F 69% 30.11 in 10.0 mi NW 9.2 mph - N/A   Clear
3:10 PM 13.1 °F 0.1 °F 5.0 °F 70% 30.11 in 10.0 mi NW 10.4 mph - N/A   Clear
3:30 PM 12.7 °F -1.8 °F 4.5 °F 70% 30.10 in 10.0 mi NNW 12.7 mph - N/A   Clear
3:50 PM 12.0 °F -2.7 °F 3.9 °F 70% 30.11 in 10.0 mi NW 12.7 mph - N/A   Clear
4:09 PM 11.1 °F -3.2 °F 3.0 °F 70% 30.11 in 10.0 mi NNW 11.5 mph - N/A   Clear
4:30 PM 10.0 °F -5.2 °F 2.7 °F 72% 30.11 in 10.0 mi NNW 12.7 mph - N/A   Clear
4:50 PM 9.1 °F -5.6 °F 2.1 °F 73% 30.11 in 10.0 mi NW 11.5 mph - N/A   Clear
5:10 PM 8.6 °F -4.7 °F 1.6 °F 73% 30.11 in 10.0 mi NNW 9.2 mph - N/A   Clear
5:30 PM 7.7 °F -5.8 °F 1.2 °F 75% 30.12 in 10.0 mi NNW 9.2 mph - N/A   Clear
5:49 PM 7.0 °F -5.7 °F 0.5 °F 75% 30.12 in 10.0 mi NNW 8.1 mph - N/A   Clear
5:59 PM 6.6 °F -6.1 °F 0.3 °F 75% 30.12 in 10.0 mi NNW 8.1 mph - N/A   Clear
6:30 PM 5.5 °F -6.3 °F -0.4 °F 77% 30.13 in 10.0 mi NNW 6.9 mph - N/A   Clear
6:49 PM 5.2 °F -6.7 °F -0.6 °F 77% 30.14 in 10.0 mi NNW 6.9 mph - N/A   Clear
7:10 PM 5.0 °F -8.1 °F -0.9 °F 76% 30.14 in 10.0 mi NNW 8.1 mph - N/A   Clear
7:29 PM 4.5 °F -8.7 °F -1.3 °F 77% 30.14 in 10.0 mi NNW 8.1 mph - N/A   Clear
7:49 PM 3.9 °F -6.9 °F -1.7 °F 78% 30.15 in 10.0 mi NNW 5.8 mph - N/A   Clear
8:30 PM 3.2 °F -9.1 °F -2.4 °F 78% 30.15 in 10.0 mi NNW 6.9 mph - N/A   Clear
8:50 PM 2.3 °F -7.2 °F -2.6 °F 80% 30.16 in 10.0 mi NNW 4.6 mph - N/A   Clear
9:10 PM 2.1 °F -9.0 °F -3.1 °F 79% 30.16 in 10.0 mi NNW 5.8 mph - N/A   Clear
9:30 PM 1.6 °F -9.7 °F -3.6 °F 79% 30.17 in 10.0 mi NNW 5.8 mph - N/A   Clear
9:50 PM 1.4 °F -8.3 °F -3.3 °F 81% 30.17 in 10.0 mi NNW 4.6 mph - N/A   Clear
10:10 PM 1.2 °F -11.5 °F -3.8 °F 79% 30.18 in 10.0 mi NNW 6.9 mph - N/A   Clear
10:30 PM 0.5 °F -12.3 °F -4.0 °F 81% 30.19 in 10.0 mi NNW 6.9 mph - N/A   Clear
10:50 PM 0.3 °F -14.8 °F -4.2 °F 81% 30.20 in 10.0 mi NW 9.2 mph - N/A   Clear
11:09 PM 0.9 °F -11.9 °F -4.0 °F 80% 30.20 in 10.0 mi NNW 6.9 mph - N/A   Clear
11:30 PM -0.0 °F -13.0 °F -4.7 °F 81% 30.20 in 10.0 mi NNW 6.9 mph - N/A   Clear
11:50 PM -0.4 °F -13.4 °F -4.9 °F 81% 30.20 in 10.0 mi NNW 6.9 mph - N/A   Clear